Flag for Germany Weather past 2 weeks in Iserlohn, North Rhine-Westphalia, Germany

Now
72 °F

Passing clouds.


Feels Like: 76 °F
Forecast: 61 / 84 °F
Wind: 9 mph from Northeast

Location: Dortmund / Wickede

Current Time: Jun 30, 2015 at 12:03:26 PM

Latest Report: Jun 30, 2015 at 11:20 AM


Visibility: N/A

Pressure: 30.18 "Hg

Humidity: 57%

Dew point: 55 °F

Location of IserlohnLocation

Historic Weather in Iserlohn — Graph

°F

Iserlohn temperature yesterday

Maximum temperature yesterday: 77 °F (at 4:50 PM)
Minimum temperature yesterday: 63 °F (at 10:20 PM)
Average temperature yesterday: 71 °F

Past Weeks' High & Low Weather Summary

 TemperatureHumidityPressure
High77 °F (Jun 26, 12:50 PM)94% (Jun 20, 6:20 AM)30.27 "Hg (Jun 20, 6:20 AM)
Low41 °F (Jun 16, 5:20 AM)31% (Jun 28, 3:20 PM)29.68 "Hg (Jun 22, 7:50 PM)
Average61 °F64%30.07 "Hg
* Reported Jun 15 10:20 AM — Jun 30 10:50 AM, Iserlohn, Weather by CustomWeather, © 2015

Note: Actual official high and low records may vary slightly from our data, if they occured in-between our weather recording intervals... More about our weather records

Advertising

Iserlohn weather history for previous 24 hours

 ConditionsComfort  
Time TempWeatherWind HumidityBarometerVisibility
10:50 AM
Tue, Jun 30
72 °FPassing clouds.8 mph53%30.18 "HgN/A
10:20 AM70 °FPassing clouds.7 mph64%30.21 "HgN/A
9:50 AM70 °FPassing clouds.5 mph60%30.21 "HgN/A
9:20 AM68 °FSunny.3 mph64%30.21 "Hg10 mi
8:50 AM66 °FSunny.2 mph68%30.21 "Hg10 mi
8:20 AM64 °FSunny.3 mph68%30.18 "Hg10 mi
7:50 AM63 °FSunny.2 mph73%30.18 "Hg10 mi
7:20 AM61 °FSunny.3 mph77%30.18 "Hg10 mi
6:50 AM59 °FSunny.3 mph82%30.18 "Hg10 mi
6:20 AM57 °FSunny.3 mph88%30.18 "Hg10 mi
5:50 AM52 °FClear.2 mph82%30.18 "Hg10 mi
5:20 AM59 °FClear.3 mph82%30.18 "Hg10 mi
10:50 PM
Mon, Jun 29
64 °FClear.2 mph64%30.18 "Hg10 mi
10:20 PM63 °FSunny.3 mph64%30.18 "Hg10 mi
9:50 PM64 °FSunny.2 mph60%30.18 "Hg10 mi
9:20 PM66 °FSunny.2 mph56%30.18 "Hg10 mi
8:50 PM70 °FSunny.3 mph46%30.15 "Hg10 mi
8:20 PM72 °FSunny.3 mph44%30.15 "Hg10 mi
7:50 PM73 °FSunny.6 mph38%30.15 "Hg10 mi
7:20 PM75 °FSunny.6 mph36%30.15 "Hg10 mi
6:50 PM73 °FSunny.6 mph41%30.15 "Hg10 mi
6:20 PM73 °FPassing clouds.6 mph41%30.15 "HgN/A
5:50 PM75 °FSunny.7 mph41%30.15 "Hg10 mi
5:20 PM75 °FSunny.8 mph39%30.15 "Hg10 mi
4:50 PM77 °FSunny.8 mph36%30.15 "Hg10 mi
4:20 PM75 °FSunny.7 mph39%30.15 "Hg10 mi
3:50 PM75 °FSunny.7 mph44%30.15 "Hg10 mi
3:20 PM75 °FSunny.7 mph47%30.15 "Hg10 mi
2:50 PM75 °FScattered clouds.8 mph47%30.15 "HgN/A
2:20 PM75 °FScattered clouds.8 mph47%30.15 "HgN/A
1:50 PM73 °FScattered clouds.8 mph50%30.15 "HgN/A
1:20 PM72 °FScattered clouds.8 mph53%30.15 "HgN/A
12:50 PM73 °FScattered clouds.7 mph50%30.15 "HgN/A
12:20 PM72 °FPassing clouds.6 mph53%30.12 "HgN/A
Weather by CustomWeather, © 2015

See weather overviewHow to use our weather pages